Year,Month,Day,Hour,Minute,Value (Times are PST for temperature in C)
2016,08,27,00,00,21.50
2016,08,27,00,01,21.40
2016,08,27,00,02,21.40
2016,08,27,00,03,21.40
2016,08,27,00,04,21.40
2016,08,27,00,05,21.40
2016,08,27,00,06,21.30
2016,08,27,00,07,21.30
2016,08,27,00,08,21.30
2016,08,27,00,09,21.20
2016,08,27,00,10,21.10
2016,08,27,00,11,21.00
2016,08,27,00,12,20.90
2016,08,27,00,13,20.80
2016,08,27,00,14,20.80
2016,08,27,00,15,20.60
2016,08,27,00,16,20.60
2016,08,27,00,17,20.50
2016,08,27,00,18,20.40
2016,08,27,00,19,20.30
2016,08,27,00,20,20.30
2016,08,27,00,21,20.20
2016,08,27,00,22,20.20
2016,08,27,00,23,20.20
2016,08,27,00,24,20.10
2016,08,27,00,25,20.10
2016,08,27,00,26,20.00
2016,08,27,00,27,19.90
2016,08,27,00,28,19.90
2016,08,27,00,29,19.90
2016,08,27,00,30,19.90
2016,08,27,00,31,19.80
2016,08,27,00,32,19.80
2016,08,27,00,33,19.80
2016,08,27,00,34,19.70
2016,08,27,00,35,19.70
2016,08,27,00,36,19.70
2016,08,27,00,37,19.60
2016,08,27,00,38,19.60
2016,08,27,00,39,19.60
2016,08,27,00,40,19.60
2016,08,27,00,41,19.50
2016,08,27,00,42,19.50
2016,08,27,00,43,19.50
2016,08,27,00,44,19.50
2016,08,27,00,45,19.50
2016,08,27,00,46,19.40
2016,08,27,00,47,19.40
2016,08,27,00,48,19.40
2016,08,27,00,49,19.40
2016,08,27,00,50,19.30
2016,08,27,00,51,19.30
2016,08,27,00,52,19.30
2016,08,27,00,53,19.30
2016,08,27,00,54,19.20
2016,08,27,00,55,19.20
2016,08,27,00,56,19.20
2016,08,27,00,57,19.20
2016,08,27,00,58,19.20
2016,08,27,00,59,19.10
2016,08,27,01,00,19.10
2016,08,27,01,01,19.10
2016,08,27,01,02,19.10
2016,08,27,01,03,19.10
2016,08,27,01,04,19.10
2016,08,27,01,05,19.10
2016,08,27,01,06,19.10
2016,08,27,01,07,19.10
2016,08,27,01,08,19.10
2016,08,27,01,09,19.10
2016,08,27,01,10,19.10
2016,08,27,01,11,19.10
2016,08,27,01,12,19.10
2016,08,27,01,13,19.10
2016,08,27,01,14,19.10
2016,08,27,01,15,19.10
2016,08,27,01,16,19.10
2016,08,27,01,17,19.10
2016,08,27,01,18,19.10
2016,08,27,01,19,19.10
2016,08,27,01,20,19.10
2016,08,27,01,21,19.10
2016,08,27,01,22,19.10
2016,08,27,01,23,19.10
2016,08,27,01,24,19.10
2016,08,27,01,25,19.10
2016,08,27,01,26,19.10
2016,08,27,01,27,19.10
2016,08,27,01,28,19.10
2016,08,27,01,29,19.10
2016,08,27,01,30,19.10
2016,08,27,01,31,19.10
2016,08,27,01,32,19.10
2016,08,27,01,33,19.00
2016,08,27,01,34,18.90
2016,08,27,01,35,18.90
2016,08,27,01,36,18.90
2016,08,27,01,37,18.90
2016,08,27,01,38,18.80
2016,08,27,01,39,18.80
2016,08,27,01,40,18.80
2016,08,27,01,41,18.80
2016,08,27,01,42,18.70
2016,08,27,01,43,18.70
2016,08,27,01,44,18.70
2016,08,27,01,45,18.70
2016,08,27,01,46,18.70
2016,08,27,01,47,18.60
2016,08,27,01,48,18.60
2016,08,27,01,49,18.60
2016,08,27,01,50,18.60
2016,08,27,01,51,18.60
2016,08,27,01,52,18.50
2016,08,27,01,53,18.50
2016,08,27,01,54,18.50
2016,08,27,01,55,18.50
2016,08,27,01,56,18.50
2016,08,27,01,57,18.40
2016,08,27,01,58,18.40
2016,08,27,01,59,18.40
2016,08,27,02,00,18.40
2016,08,27,02,01,18.40
2016,08,27,02,02,18.40
2016,08,27,02,03,18.40
2016,08,27,02,04,18.40
2016,08,27,02,05,18.40
2016,08,27,02,06,18.40
2016,08,27,02,07,18.40
2016,08,27,02,08,18.40
2016,08,27,02,09,18.40
2016,08,27,02,10,18.40
2016,08,27,02,11,18.30
2016,08,27,02,12,18.30
2016,08,27,02,13,18.30
2016,08,27,02,14,18.30
2016,08,27,02,15,18.20
2016,08,27,02,16,18.20
2016,08,27,02,17,18.20
2016,08,27,02,18,18.20
2016,08,27,02,19,18.20
2016,08,27,02,20,18.20
2016,08,27,02,21,18.20
2016,08,27,02,22,18.20
2016,08,27,02,23,18.20
2016,08,27,02,24,18.10
2016,08,27,02,25,18.10
2016,08,27,02,26,18.10
2016,08,27,02,27,18.10
2016,08,27,02,28,18.10
2016,08,27,02,29,18.10
2016,08,27,02,30,18.10
2016,08,27,02,31,18.10
2016,08,27,02,32,18.10
2016,08,27,02,33,18.00
2016,08,27,02,34,17.90
2016,08,27,02,35,17.90
2016,08,27,02,36,17.90
2016,08,27,02,37,17.90
2016,08,27,02,38,17.90
2016,08,27,02,39,17.90
2016,08,27,02,40,17.80
2016,08,27,02,41,17.80
2016,08,27,02,42,17.80
2016,08,27,02,43,17.80
2016,08,27,02,44,17.70
2016,08,27,02,45,17.70
2016,08,27,02,46,17.70
2016,08,27,02,47,17.70
2016,08,27,02,48,17.60
2016,08,27,02,49,17.60
2016,08,27,02,50,17.60
2016,08,27,02,51,17.60
2016,08,27,02,52,17.50
2016,08,27,02,53,17.50
2016,08,27,02,54,17.50
2016,08,27,02,55,17.50
2016,08,27,02,56,17.40
2016,08,27,02,57,17.40
2016,08,27,02,58,17.40
2016,08,27,02,59,17.40
2016,08,27,03,00,17.40
2016,08,27,03,01,17.40
2016,08,27,03,02,17.40
2016,08,27,03,03,17.50
2016,08,27,03,04,17.60
2016,08,27,03,05,17.60
2016,08,27,03,06,17.50
2016,08,27,03,07,17.50
2016,08,27,03,08,17.50
2016,08,27,03,09,17.50
2016,08,27,03,10,17.50
2016,08,27,03,11,17.50
2016,08,27,03,12,17.50
2016,08,27,03,13,17.50
2016,08,27,03,14,17.50
2016,08,27,03,15,17.60
2016,08,27,03,16,17.60
2016,08,27,03,17,17.60
2016,08,27,03,18,17.60
2016,08,27,03,19,17.70
2016,08,27,03,20,17.70
2016,08,27,03,21,17.80
2016,08,27,03,22,17.80
2016,08,27,03,23,17.80
2016,08,27,03,24,17.80
2016,08,27,03,25,17.90
2016,08,27,03,26,17.90
2016,08,27,03,27,18.00
2016,08,27,03,28,18.10
2016,08,27,03,29,18.10
2016,08,27,03,30,18.10
2016,08,27,03,31,18.10
2016,08,27,03,32,18.10
2016,08,27,03,33,18.10
2016,08,27,03,34,18.10
2016,08,27,03,35,18.20
2016,08,27,03,36,18.20
2016,08,27,03,37,18.20
2016,08,27,03,38,18.20
2016,08,27,03,39,18.20
2016,08,27,03,40,18.10
2016,08,27,03,41,18.10
2016,08,27,03,42,18.10
2016,08,27,03,43,18.10
2016,08,27,03,44,18.10
2016,08,27,03,45,18.10
2016,08,27,03,46,18.10
2016,08,27,03,47,18.10
2016,08,27,03,48,18.10
2016,08,27,03,49,18.10
2016,08,27,03,50,18.10
2016,08,27,03,51,18.10
2016,08,27,03,52,18.10
2016,08,27,03,53,18.10
2016,08,27,03,54,18.10
2016,08,27,03,55,18.10
2016,08,27,03,56,18.10
2016,08,27,03,57,18.10
2016,08,27,03,58,18.10
2016,08,27,03,59,18.10
2016,08,27,04,00,18.00
2016,08,27,04,01,18.00
2016,08,27,04,02,18.10
2016,08,27,04,03,18.10
2016,08,27,04,04,18.10
2016,08,27,04,05,18.10
2016,08,27,04,06,18.20
2016,08,27,04,07,18.20
2016,08,27,04,08,18.20
2016,08,27,04,09,18.20
2016,08,27,04,10,18.20
2016,08,27,04,11,18.20
2016,08,27,04,12,18.10
2016,08,27,04,13,18.10
2016,08,27,04,14,18.10
2016,08,27,04,15,18.10
2016,08,27,04,16,18.20
2016,08,27,04,17,18.20
2016,08,27,04,18,18.20
2016,08,27,04,19,18.20
2016,08,27,04,20,18.20
2016,08,27,04,21,18.20
2016,08,27,04,22,18.20
2016,08,27,04,23,18.20
2016,08,27,04,24,18.20
2016,08,27,04,25,18.10
2016,08,27,04,26,18.10
2016,08,27,04,27,18.10
2016,08,27,04,28,18.10
2016,08,27,04,29,18.00
2016,08,27,04,30,17.90
2016,08,27,04,31,17.90
2016,08,27,04,32,17.90
2016,08,27,04,33,17.90
2016,08,27,04,34,17.80
2016,08,27,04,35,17.80
2016,08,27,04,36,17.70
2016,08,27,04,37,17.70
2016,08,27,04,38,17.70
2016,08,27,04,39,17.60
2016,08,27,04,40,17.60
2016,08,27,04,41,17.60
2016,08,27,04,42,17.60
2016,08,27,04,43,17.60
2016,08,27,04,44,17.60
2016,08,27,04,45,17.60
2016,08,27,04,46,17.50
2016,08,27,04,47,17.60
2016,08,27,04,48,17.60
2016,08,27,04,49,17.60
2016,08,27,04,50,17.60
2016,08,27,04,51,17.60
2016,08,27,04,52,17.60
2016,08,27,04,53,17.60
2016,08,27,04,54,17.60
2016,08,27,04,55,17.60
2016,08,27,04,56,17.60
2016,08,27,04,57,17.60
2016,08,27,04,58,17.60
2016,08,27,04,59,17.60
2016,08,27,05,00,17.60
2016,08,27,05,01,17.70
2016,08,27,05,02,17.70
2016,08,27,05,03,17.70
2016,08,27,05,04,17.70
2016,08,27,05,05,17.80
2016,08,27,05,06,17.90
2016,08,27,05,07,17.90
2016,08,27,05,08,17.90
2016,08,27,05,09,18.00
2016,08,27,05,10,18.10
2016,08,27,05,11,18.10
2016,08,27,05,12,18.20
2016,08,27,05,13,18.20
2016,08,27,05,14,18.20
2016,08,27,05,15,18.20
2016,08,27,05,16,18.20
2016,08,27,05,17,18.20
2016,08,27,05,18,18.20
2016,08,27,05,19,18.20
2016,08,27,05,20,18.20
2016,08,27,05,21,18.30
2016,08,27,05,22,18.30
2016,08,27,05,23,18.30
2016,08,27,05,24,18.50
2016,08,27,05,25,18.70
2016,08,27,05,26,19.00
2016,08,27,05,27,19.20
2016,08,27,05,28,19.40
2016,08,27,05,29,19.50
2016,08,27,05,30,19.50
2016,08,27,05,31,19.60
2016,08,27,05,32,19.80
2016,08,27,05,33,19.90
2016,08,27,05,34,19.90
2016,08,27,05,35,19.90
2016,08,27,05,36,19.90
2016,08,27,05,37,19.90
2016,08,27,05,38,20.00
2016,08,27,05,39,20.10
2016,08,27,05,40,20.10
2016,08,27,05,41,20.20
2016,08,27,05,42,20.20
2016,08,27,05,43,20.20
2016,08,27,05,44,20.30
2016,08,27,05,45,20.40
2016,08,27,05,46,20.40
2016,08,27,05,47,20.50
2016,08,27,05,48,20.50
2016,08,27,05,49,20.60
2016,08,27,05,50,20.60
2016,08,27,05,51,20.60
2016,08,27,05,52,20.70
2016,08,27,05,53,20.80
2016,08,27,05,54,20.80
2016,08,27,05,55,20.80
2016,08,27,05,56,20.80
2016,08,27,05,57,20.80
2016,08,27,05,58,20.80
2016,08,27,05,59,20.70
2016,08,27,06,00,20.70
2016,08,27,06,01,20.70
2016,08,27,06,02,20.60
2016,08,27,06,03,20.60
2016,08,27,06,04,20.50
2016,08,27,06,05,20.50
2016,08,27,06,06,20.40
2016,08,27,06,07,20.40
2016,08,27,06,08,20.30
2016,08,27,06,09,20.20
2016,08,27,06,10,20.20
2016,08,27,06,11,20.20
2016,08,27,06,12,20.20
2016,08,27,06,13,20.10
2016,08,27,06,14,20.10
2016,08,27,06,15,20.00
2016,08,27,06,16,19.90
2016,08,27,06,17,19.90
2016,08,27,06,18,19.80
2016,08,27,06,19,19.80
2016,08,27,06,20,19.70
2016,08,27,06,21,19.70
2016,08,27,06,22,19.60
2016,08,27,06,23,19.60
2016,08,27,06,24,19.50
2016,08,27,06,25,19.50
2016,08,27,06,26,19.40
2016,08,27,06,27,19.40
2016,08,27,06,28,19.40
2016,08,27,06,29,19.30
2016,08,27,06,30,19.30
2016,08,27,06,31,19.20
2016,08,27,06,32,19.20
2016,08,27,06,33,19.10
2016,08,27,06,34,19.10
2016,08,27,06,35,19.10
2016,08,27,06,36,19.00
2016,08,27,06,37,18.90
2016,08,27,06,38,18.90
2016,08,27,06,39,18.90
2016,08,27,06,40,18.80
2016,08,27,06,41,18.70
2016,08,27,06,42,18.70
2016,08,27,06,43,18.60
2016,08,27,06,44,18.50
2016,08,27,06,45,18.50
2016,08,27,06,46,18.40
2016,08,27,06,47,18.40
2016,08,27,06,48,18.40
2016,08,27,06,49,18.30
2016,08,27,06,50,18.30
2016,08,27,06,51,18.30
2016,08,27,06,52,18.30
2016,08,27,06,53,18.30
2016,08,27,06,54,18.20
2016,08,27,06,55,18.20
2016,08,27,06,56,18.20
2016,08,27,06,57,18.20
2016,08,27,06,58,18.20
2016,08,27,06,59,18.10
2016,08,27,07,00,18.10
2016,08,27,07,01,18.10
2016,08,27,07,02,18.00
2016,08,27,07,03,17.90
2016,08,27,07,04,17.90
2016,08,27,07,05,17.90
2016,08,27,07,06,17.90
2016,08,27,07,07,17.90
2016,08,27,07,08,17.90
2016,08,27,07,09,17.90
2016,08,27,07,10,17.90
2016,08,27,07,11,17.90
2016,08,27,07,12,17.90
2016,08,27,07,13,17.90
2016,08,27,07,14,17.90
2016,08,27,07,15,17.80
2016,08,27,07,16,17.80
2016,08,27,07,17,17.70
2016,08,27,07,18,17.70
2016,08,27,07,19,17.70
2016,08,27,07,20,17.60
2016,08,27,07,21,17.60
2016,08,27,07,22,17.70
2016,08,27,07,23,17.70
2016,08,27,07,24,17.70
2016,08,27,07,25,17.70
2016,08,27,07,26,17.70
2016,08,27,07,27,17.70
2016,08,27,07,28,17.70
2016,08,27,07,29,17.60
2016,08,27,07,30,17.60
2016,08,27,07,31,17.60
2016,08,27,07,32,17.60
2016,08,27,07,33,17.70
2016,08,27,07,34,17.70
2016,08,27,07,35,17.70
2016,08,27,07,36,17.70
2016,08,27,07,37,17.70
2016,08,27,07,38,17.60
2016,08,27,07,39,17.60
2016,08,27,07,40,17.70
2016,08,27,07,41,17.70
2016,08,27,07,42,17.70
2016,08,27,07,43,17.70
2016,08,27,07,44,17.70
2016,08,27,07,45,17.70
2016,08,27,07,46,17.70
2016,08,27,07,47,17.80
2016,08,27,07,48,17.80
2016,08,27,07,49,17.80
2016,08,27,07,50,17.90
2016,08,27,07,51,17.90
2016,08,27,07,52,17.90
2016,08,27,07,53,17.90
2016,08,27,07,54,17.90
2016,08,27,07,55,17.90
2016,08,27,07,56,17.90
2016,08,27,07,57,17.90
2016,08,27,07,58,17.90
2016,08,27,07,59,18.00
2016,08,27,08,00,18.10
2016,08,27,08,01,18.10
2016,08,27,08,02,18.10
2016,08,27,08,03,18.10
2016,08,27,08,04,18.10
2016,08,27,08,05,18.10
2016,08,27,08,06,18.10
2016,08,27,08,07,18.10
2016,08,27,08,08,18.20
2016,08,27,08,09,18.20
2016,08,27,08,10,18.20
2016,08,27,08,11,18.20
2016,08,27,08,12,18.20
2016,08,27,08,13,18.20
2016,08,27,08,14,18.20
2016,08,27,08,15,18.20
2016,08,27,08,16,18.20
2016,08,27,08,17,18.20
2016,08,27,08,18,18.20
2016,08,27,08,19,18.20
2016,08,27,08,20,18.30
2016,08,27,08,21,18.30
2016,08,27,08,22,18.30
2016,08,27,08,23,18.30
2016,08,27,08,24,18.30
2016,08,27,08,25,18.30
2016,08,27,08,26,18.30
2016,08,27,08,27,18.30
2016,08,27,08,28,18.40
2016,08,27,08,29,18.40
2016,08,27,08,30,18.40
2016,08,27,08,31,18.40
2016,08,27,08,32,18.40
2016,08,27,08,33,18.40
2016,08,27,08,34,18.40
2016,08,27,08,35,18.40
2016,08,27,08,36,18.40
2016,08,27,08,37,18.40
2016,08,27,08,38,18.30
2016,08,27,08,39,18.30
2016,08,27,08,40,18.30
2016,08,27,08,41,18.30
2016,08,27,08,42,18.40
2016,08,27,08,43,18.40
2016,08,27,08,44,18.40
2016,08,27,08,45,18.40
2016,08,27,08,46,18.40
2016,08,27,08,47,18.50
2016,08,27,08,48,18.50
2016,08,27,08,49,18.50
2016,08,27,08,50,18.50
2016,08,27,08,51,18.50
2016,08,27,08,52,18.50
2016,08,27,08,53,18.60
2016,08,27,08,54,18.60
2016,08,27,08,55,18.60
2016,08,27,08,56,18.60
2016,08,27,08,57,18.60
2016,08,27,08,58,18.60
2016,08,27,08,59,18.60
2016,08,27,09,00,18.60
2016,08,27,09,01,18.70
2016,08,27,09,02,18.70
2016,08,27,09,03,18.70
2016,08,27,09,04,18.70
2016,08,27,09,05,18.70
2016,08,27,09,06,18.70
2016,08,27,09,07,18.70
2016,08,27,09,08,18.70
2016,08,27,09,09,18.70
2016,08,27,09,10,18.70
2016,08,27,09,11,18.70
2016,08,27,09,12,18.70
2016,08,27,09,13,18.70
2016,08,27,09,14,18.70
2016,08,27,09,15,18.60
2016,08,27,09,16,18.60
2016,08,27,09,17,18.50
2016,08,27,09,18,18.50
2016,08,27,09,19,18.40
2016,08,27,09,20,18.30
2016,08,27,09,21,18.20
2016,08,27,09,22,18.20
2016,08,27,09,23,18.20
2016,08,27,09,24,18.20
2016,08,27,09,25,18.20
2016,08,27,09,26,18.20
2016,08,27,09,27,18.20
2016,08,27,09,28,18.20
2016,08,27,09,29,18.30
2016,08,27,09,30,18.30
2016,08,27,09,31,18.30
2016,08,27,09,32,18.40
2016,08,27,09,33,18.50
2016,08,27,09,34,18.50
2016,08,27,09,35,18.60
2016,08,27,09,36,18.60
2016,08,27,09,37,18.70
2016,08,27,09,38,18.70
2016,08,27,09,39,18.70
2016,08,27,09,40,18.70
2016,08,27,09,41,18.70
2016,08,27,09,42,18.70
2016,08,27,09,43,18.70
2016,08,27,09,44,18.80
2016,08,27,09,45,18.80
2016,08,27,09,46,18.80
2016,08,27,09,47,18.80
2016,08,27,09,48,18.80
2016,08,27,09,49,18.80
2016,08,27,09,50,18.90
2016,08,27,09,51,19.00
2016,08,27,09,52,19.10
2016,08,27,09,53,19.10
2016,08,27,09,54,19.10
2016,08,27,09,55,19.10
2016,08,27,09,56,19.10
2016,08,27,09,57,19.10
2016,08,27,09,58,19.10
2016,08,27,09,59,19.10
2016,08,27,10,00,19.10
2016,08,27,10,01,19.10
2016,08,27,10,02,19.10
2016,08,27,10,03,19.10
2016,08,27,10,04,19.10
2016,08,27,10,05,19.10
2016,08,27,10,06,19.10
2016,08,27,10,07,19.10
2016,08,27,10,08,19.10
2016,08,27,10,09,19.10
2016,08,27,10,10,19.20
2016,08,27,10,11,19.20
2016,08,27,10,12,19.10
2016,08,27,10,13,19.10
2016,08,27,10,14,19.10
2016,08,27,10,15,19.10
2016,08,27,10,16,19.00
2016,08,27,10,17,18.90
2016,08,27,10,18,18.90
2016,08,27,10,19,18.90
2016,08,27,10,20,18.90
2016,08,27,10,21,18.90
2016,08,27,10,22,18.90
2016,08,27,10,23,18.90
2016,08,27,10,24,18.90
2016,08,27,10,25,18.90
2016,08,27,10,26,18.90
2016,08,27,10,27,18.90
2016,08,27,10,28,18.80
2016,08,27,10,29,18.80
2016,08,27,10,30,18.80
2016,08,27,10,31,18.70
2016,08,27,10,32,18.70
2016,08,27,10,33,18.60
2016,08,27,10,34,18.60
2016,08,27,10,35,18.50
2016,08,27,10,36,18.50
2016,08,27,10,37,18.40
2016,08,27,10,38,18.30
2016,08,27,10,39,18.30
2016,08,27,10,40,18.20
2016,08,27,10,41,18.20
2016,08,27,10,42,18.20
2016,08,27,10,43,18.30
2016,08,27,10,44,18.40
2016,08,27,10,45,18.40
2016,08,27,10,46,18.40
2016,08,27,10,47,18.50
2016,08,27,10,48,18.60
2016,08,27,10,49,18.70
2016,08,27,10,50,18.70
2016,08,27,10,51,18.90
2016,08,27,10,52,18.90
2016,08,27,10,53,19.10
2016,08,27,10,54,19.10
2016,08,27,10,55,19.10
2016,08,27,10,56,19.20
2016,08,27,10,57,19.30
2016,08,27,10,58,19.30
2016,08,27,10,59,19.40
2016,08,27,11,00,19.60
2016,08,27,11,01,19.60
2016,08,27,11,02,19.80
2016,08,27,11,03,19.90
2016,08,27,11,04,20.00
2016,08,27,11,05,20.10
2016,08,27,11,06,20.20
2016,08,27,11,07,20.30
2016,08,27,11,08,20.30
2016,08,27,11,09,20.30
2016,08,27,11,10,20.30
2016,08,27,11,11,20.40
2016,08,27,11,12,20.40
2016,08,27,11,13,20.30
2016,08,27,11,14,20.20
2016,08,27,11,15,20.20
2016,08,27,11,16,20.20
2016,08,27,11,17,20.20
2016,08,27,11,18,20.20
2016,08,27,11,19,20.20
2016,08,27,11,20,20.40
2016,08,27,11,21,20.50
2016,08,27,11,22,20.60
2016,08,27,11,23,20.70
2016,08,27,11,24,20.80
2016,08,27,11,25,20.90
2016,08,27,11,26,20.80
2016,08,27,11,27,20.70
2016,08,27,11,28,20.70
2016,08,27,11,29,20.70
2016,08,27,11,30,20.50
2016,08,27,11,31,20.50
2016,08,27,11,32,20.50
2016,08,27,11,33,20.60
2016,08,27,11,34,20.60
2016,08,27,11,35,20.60
2016,08,27,11,36,20.60
2016,08,27,11,37,20.70
2016,08,27,11,38,20.70
2016,08,27,11,39,20.60
2016,08,27,11,40,20.50
2016,08,27,11,41,20.50
2016,08,27,11,42,20.50
2016,08,27,11,43,20.50
2016,08,27,11,44,20.50
2016,08,27,11,45,20.60
2016,08,27,11,46,20.50
2016,08,27,11,47,20.40
2016,08,27,11,48,20.40
2016,08,27,11,49,20.40
2016,08,27,11,50,20.30
2016,08,27,11,51,20.20
2016,08,27,11,52,20.10
2016,08,27,11,53,20.00
2016,08,27,11,54,19.90
2016,08,27,11,55,19.90
2016,08,27,11,56,19.90
2016,08,27,11,57,19.90
2016,08,27,11,58,19.90
2016,08,27,11,59,19.90
2016,08,27,12,00,19.90
2016,08,27,12,01,19.80
2016,08,27,12,02,19.70
2016,08,27,12,03,19.70
2016,08,27,12,04,19.80
2016,08,27,12,05,19.90
2016,08,27,12,06,19.90
2016,08,27,12,07,19.80
2016,08,27,12,08,19.70
2016,08,27,12,09,19.60
2016,08,27,12,10,19.60
2016,08,27,12,11,19.50
2016,08,27,12,12,19.40
2016,08,27,12,13,19.40
2016,08,27,12,14,19.40
2016,08,27,12,15,19.40
2016,08,27,12,16,19.50
2016,08,27,12,17,19.50
2016,08,27,12,18,19.60
2016,08,27,12,19,19.60
2016,08,27,12,20,19.50
2016,08,27,12,21,19.40
2016,08,27,12,22,19.40
2016,08,27,12,23,19.30
2016,08,27,12,24,19.30
2016,08,27,12,25,19.30
2016,08,27,12,26,19.30
2016,08,27,12,27,19.30
2016,08,27,12,28,19.30
2016,08,27,12,29,19.30
2016,08,27,12,30,19.30
2016,08,27,12,31,19.30
2016,08,27,12,32,19.30
2016,08,27,12,33,19.30
2016,08,27,12,34,19.40
2016,08,27,12,35,19.40
2016,08,27,12,36,19.40
2016,08,27,12,37,19.40
2016,08,27,12,38,19.40
2016,08,27,12,39,19.50
2016,08,27,12,40,19.40
2016,08,27,12,41,19.40
2016,08,27,12,42,19.40
2016,08,27,12,43,19.50
2016,08,27,12,44,19.60
2016,08,27,12,45,19.70
2016,08,27,12,46,19.80
2016,08,27,12,47,19.80
2016,08,27,12,48,19.80
2016,08,27,12,49,19.70
2016,08,27,12,50,19.70
2016,08,27,12,51,19.70
2016,08,27,12,52,19.70
2016,08,27,12,53,19.70
2016,08,27,12,54,19.70
2016,08,27,12,55,19.60
2016,08,27,12,56,19.60
2016,08,27,12,57,19.60
2016,08,27,12,58,19.60
2016,08,27,12,59,19.50
2016,08,27,13,00,19.50
2016,08,27,13,01,19.50
2016,08,27,13,02,19.60
2016,08,27,13,03,19.70
2016,08,27,13,04,19.70
2016,08,27,13,05,19.70
2016,08,27,13,06,19.70
2016,08,27,13,07,19.80
2016,08,27,13,08,19.80
2016,08,27,13,09,19.90
2016,08,27,13,10,19.90
2016,08,27,13,11,19.80
2016,08,27,13,12,19.80
2016,08,27,13,13,19.70
2016,08,27,13,14,19.70
2016,08,27,13,15,19.60
2016,08,27,13,16,19.60
2016,08,27,13,17,19.50
2016,08,27,13,18,19.50
2016,08,27,13,19,19.50
2016,08,27,13,20,19.50
2016,08,27,13,21,19.50
2016,08,27,13,22,19.50
2016,08,27,13,23,19.60
2016,08,27,13,24,19.60
2016,08,27,13,25,19.60
2016,08,27,13,26,19.70
2016,08,27,13,27,19.80
2016,08,27,13,28,19.90
2016,08,27,13,29,20.10
2016,08,27,13,30,20.20
2016,08,27,13,31,20.20
2016,08,27,13,32,20.20
2016,08,27,13,33,20.20
2016,08,27,13,34,20.30
2016,08,27,13,35,20.30
2016,08,27,13,36,20.20
2016,08,27,13,37,20.00
2016,08,27,13,38,19.90
2016,08,27,13,39,19.70
2016,08,27,13,40,19.60
2016,08,27,13,41,19.60
2016,08,27,13,42,19.50
2016,08,27,13,43,19.40
2016,08,27,13,44,19.20
2016,08,27,13,45,19.10
2016,08,27,13,46,19.00
2016,08,27,13,47,18.90
2016,08,27,13,48,18.90
2016,08,27,13,49,18.90
2016,08,27,13,50,18.80
2016,08,27,13,51,18.80
2016,08,27,13,52,18.80
2016,08,27,13,53,18.90
2016,08,27,13,54,18.90
2016,08,27,13,55,18.90
2016,08,27,13,56,18.90
2016,08,27,13,57,19.00
2016,08,27,13,58,19.10
2016,08,27,13,59,19.10
2016,08,27,14,00,19.10
2016,08,27,14,01,19.10
2016,08,27,14,02,19.10
2016,08,27,14,03,19.10
2016,08,27,14,04,19.10
2016,08,27,14,05,19.10
2016,08,27,14,06,19.20
2016,08,27,14,07,19.30
2016,08,27,14,08,19.30
2016,08,27,14,09,19.30
2016,08,27,14,10,19.20
2016,08,27,14,11,19.10
2016,08,27,14,12,19.00
2016,08,27,14,13,18.80
2016,08,27,14,14,18.70
2016,08,27,14,15,18.60
2016,08,27,14,16,18.60
2016,08,27,14,17,18.60
2016,08,27,14,18,18.60
2016,08,27,14,19,18.60
2016,08,27,14,20,18.50
2016,08,27,14,21,18.50
2016,08,27,14,22,18.50
2016,08,27,14,23,18.40
2016,08,27,14,24,18.40
2016,08,27,14,25,18.40
2016,08,27,14,26,18.50
2016,08,27,14,27,18.60
2016,08,27,14,28,18.60
2016,08,27,14,29,18.50
2016,08,27,14,30,18.50
2016,08,27,14,31,18.50
2016,08,27,14,32,18.50
2016,08,27,14,33,18.60
2016,08,27,14,34,18.60
2016,08,27,14,35,18.70
2016,08,27,14,36,18.70
2016,08,27,14,37,18.70
2016,08,27,14,38,18.60
2016,08,27,14,39,18.60
2016,08,27,14,40,18.60
2016,08,27,14,41,18.70
2016,08,27,14,42,18.70
2016,08,27,14,43,18.70
2016,08,27,14,44,18.70
2016,08,27,14,45,18.70
2016,08,27,14,46,18.80
2016,08,27,14,47,18.90
2016,08,27,14,48,18.90
2016,08,27,14,49,18.90
2016,08,27,14,50,18.90
2016,08,27,14,51,18.90
2016,08,27,14,52,18.90
2016,08,27,14,53,18.90
2016,08,27,14,54,18.80
2016,08,27,14,55,18.80
2016,08,27,14,56,18.80
2016,08,27,14,57,18.80
2016,08,27,14,58,18.80
2016,08,27,14,59,18.90
2016,08,27,15,00,19.00
2016,08,27,15,01,19.10
2016,08,27,15,02,19.20
2016,08,27,15,03,19.30
2016,08,27,15,04,19.30
2016,08,27,15,05,19.40
2016,08,27,15,06,19.40
2016,08,27,15,07,19.40
2016,08,27,15,08,19.30
2016,08,27,15,09,19.30
2016,08,27,15,10,19.30
2016,08,27,15,11,19.10
2016,08,27,15,12,19.10
2016,08,27,15,13,19.10
2016,08,27,15,14,19.10
2016,08,27,15,15,19.10
2016,08,27,15,16,19.10
2016,08,27,15,17,19.10
2016,08,27,15,18,19.20
2016,08,27,15,19,19.20
2016,08,27,15,20,19.20
2016,08,27,15,21,19.20
2016,08,27,15,22,19.20
2016,08,27,15,23,19.20
2016,08,27,15,24,19.20
2016,08,27,15,25,19.20
2016,08,27,15,26,19.20
2016,08,27,15,27,19.30
2016,08,27,15,28,19.40
2016,08,27,15,29,19.50
2016,08,27,15,30,19.50
2016,08,27,15,31,19.50
2016,08,27,15,32,19.60
2016,08,27,15,33,19.50
2016,08,27,15,34,19.50
2016,08,27,15,35,19.50
2016,08,27,15,36,19.50
2016,08,27,15,37,19.60
2016,08,27,15,38,19.60
2016,08,27,15,39,19.60
2016,08,27,15,40,19.50
2016,08,27,15,41,19.50
2016,08,27,15,42,19.50
2016,08,27,15,43,19.60
2016,08,27,15,44,19.60
2016,08,27,15,45,19.60
2016,08,27,15,46,19.60
2016,08,27,15,47,19.60
2016,08,27,15,48,19.50
2016,08,27,15,49,19.60
2016,08,27,15,50,19.60
2016,08,27,15,51,19.60
2016,08,27,15,52,19.60
2016,08,27,15,53,19.50
2016,08,27,15,54,19.60
2016,08,27,15,55,19.60
2016,08,27,15,56,19.60
2016,08,27,15,57,19.70
2016,08,27,15,58,19.80
2016,08,27,15,59,19.90
2016,08,27,16,00,20.00
2016,08,27,16,01,20.10
2016,08,27,16,02,20.20
2016,08,27,16,03,20.20
2016,08,27,16,04,20.20
2016,08,27,16,05,20.20
2016,08,27,16,06,20.10
2016,08,27,16,07,19.90
2016,08,27,16,08,19.70
2016,08,27,16,09,19.60
2016,08,27,16,10,19.50
2016,08,27,16,11,19.50
2016,08,27,16,12,19.40
2016,08,27,16,13,19.30
2016,08,27,16,14,19.30
2016,08,27,16,15,19.30
2016,08,27,16,16,19.30
2016,08,27,16,17,19.20
2016,08,27,16,18,19.10
2016,08,27,16,19,19.10
2016,08,27,16,20,19.10
2016,08,27,16,21,19.00
2016,08,27,16,22,18.90
2016,08,27,16,23,18.90
2016,08,27,16,24,18.90
2016,08,27,16,25,18.90
2016,08,27,16,26,19.00
2016,08,27,16,27,19.00
2016,08,27,16,28,18.90
2016,08,27,16,29,18.90
2016,08,27,16,30,18.90
2016,08,27,16,31,18.90
2016,08,27,16,32,19.00
2016,08,27,16,33,19.10
2016,08,27,16,34,19.10
2016,08,27,16,35,19.30
2016,08,27,16,36,19.40
2016,08,27,16,37,19.40
2016,08,27,16,38,19.50
2016,08,27,16,39,19.50
2016,08,27,16,40,19.50
2016,08,27,16,41,19.50
2016,08,27,16,42,19.50
2016,08,27,16,43,19.60
2016,08,27,16,44,19.60
2016,08,27,16,45,19.60
2016,08,27,16,46,19.70
2016,08,27,16,47,19.80
2016,08,27,16,48,19.80
2016,08,27,16,49,19.80
2016,08,27,16,50,19.80
2016,08,27,16,51,19.70
2016,08,27,16,52,19.60
2016,08,27,16,53,19.50
2016,08,27,16,54,19.50
2016,08,27,16,55,19.60
2016,08,27,16,56,19.50
2016,08,27,16,57,19.60
2016,08,27,16,58,19.60
2016,08,27,16,59,19.60
2016,08,27,17,00,19.60
2016,08,27,17,01,19.50
2016,08,27,17,02,19.40
2016,08,27,17,03,19.30
2016,08,27,17,04,19.30
2016,08,27,17,05,19.30
2016,08,27,17,06,19.30
2016,08,27,17,07,19.30
2016,08,27,17,08,19.30
2016,08,27,17,09,19.30
2016,08,27,17,10,19.30
2016,08,27,17,11,19.30
2016,08,27,17,12,19.40
2016,08,27,17,13,19.40
2016,08,27,17,14,19.40
2016,08,27,17,15,19.30
2016,08,27,17,16,19.30
2016,08,27,17,17,19.20
2016,08,27,17,18,19.20
2016,08,27,17,19,19.10